Watsonville, CA

8:45 AM PST on December 13, 2019 (GMT -0800)
Watsonville Municipal

Weather History for KWVI - August, 2019

Change the Weather History Date:

Sunday, August 4, 2019

  Actual Average Record
Temperature  
Mean Temperature 66 °F 63 °F  
Max Temperature 77 °F 73 °F 81 °F (2017)
Min Temperature 54 °F 53 °F 48 °F (2018)
Degree Days  
Heating Degree Days 0    
Month to date heating degree days 2  
Since 1 June heating degree days 140  
Since 1 July heating degree days 49  
Cooling Degree Days 1    
Month to date cooling degree days 3  
Year to date cooling degree days 57  
Since 1 June cooling degree days 57  
Growing Degree Days 16 (Base 50)    
Moisture  
Dew Point 56 °F    
Average Humidity 75    
Maximum Humidity 100    
Minimum Humidity 50    
Precipitation  
Precipitation 0.00 in - 0.04 in (1962)
Month to date precipitation T  
Year to date precipitation 22.76  
Sea Level Pressure  
Sea Level Pressure 29.97 in    
Wind  
Wind Speed 4 mph (SSE)    
Max Wind Speed 12 mph    
Max Gust Speed 15 mph    
Visibility 6 miles    
Events Fog    
T = Trace of Precipitation, MM = Missing Value Source: NWS Daily Summary

Daily Weather History Graph

Daily Weather History Graph

Search for Another Location

Airport or City:

Astronomy

Aug. 04, 2019 Rise Set
Actual Time 6:14 AM PDT 8:11 PM PDT
Civil Twilight 5:46 AM PDT 8:39 PM PDT
Nautical Twilight 5:11 AM PDT 9:13 PM PDT
Astronomical Twilight 4:34 AM PDT 9:50 PM PDT
Moon 10:21 AM PDT (8/4) 10:59 PM PDT (8/4)
Length of Visible Light 14h 53m
Length of Day
13h 56m
Waxing Crescent, 19% of the Moon is Illuminated
Aug 4
Waxing Crescent
Aug 7
First Quarter
Aug 15
Full
Aug 23
Last Quarter
Aug 30
New

Hourly Weather History & Observations

Time (PDT) Temp. Dew Point Humidity Pressure Visibility Wind Dir Wind Speed Gust Speed Precip Events Conditions
12:53 AM 57.9 °F 55.9 °F 93% 29.97 in 1.8 mi Calm Calm - N/A   Overcast
1:01 AM 57.9 °F 55.9 °F 93% 29.97 in 1.0 mi NW 3.5 mph - N/A   Overcast
1:08 AM 57.9 °F 55.9 °F 93% 29.97 in 0.5 mi Calm Calm - N/A Fog Fog
1:15 AM 57.0 °F 55.9 °F 96% 29.97 in 0.2 mi Calm Calm - N/A Fog Fog
1:53 AM 55.9 °F 55.0 °F 97% 29.96 in 0.2 mi Calm Calm - N/A Fog Fog
2:53 AM 57.0 °F 55.0 °F 93% 29.96 in 0.2 mi Calm Calm - N/A Fog Fog
3:18 AM 55.9 °F 55.0 °F 97% 29.96 in 0.8 mi Calm Calm - N/A   Mist
3:41 AM 57.0 °F 55.0 °F 93% 29.96 in 1.0 mi Calm Calm - N/A   Mist
3:53 AM 57.0 °F 55.9 °F 96% 29.96 in 1.0 mi Calm Calm - N/A   Mist
4:00 AM 57.0 °F 55.0 °F 93% 29.96 in 0.8 mi Calm Calm - N/A   Mist
4:28 AM 57.9 °F 55.9 °F 93% 29.95 in 0.2 mi Calm Calm - N/A Fog Fog
4:53 AM 57.9 °F 55.9 °F 93% 29.96 in 0.2 mi Calm Calm - N/A Fog Fog
5:02 AM 57.0 °F 55.9 °F 96% 29.96 in 0.5 mi NNW 3.5 mph - N/A Fog Fog
5:21 AM 57.0 °F 55.0 °F 93% 29.96 in 1.5 mi Calm Calm - N/A   Overcast
5:24 AM 55.9 °F 55.0 °F 97% 29.96 in 3.0 mi Calm Calm - N/A   Overcast
5:53 AM 55.9 °F 54.0 °F 93% 29.97 in 4.0 mi SE 3.5 mph - N/A   Overcast
6:33 AM 55.9 °F 54.0 °F 93% 29.98 in 1.5 mi SE 3.5 mph - N/A   Overcast
6:36 AM 55.9 °F 54.0 °F 93% 29.98 in 0.8 mi SE 3.5 mph - N/A   Overcast
6:53 AM 55.9 °F 54.0 °F 93% 29.98 in 0.5 mi East 4.6 mph - N/A Fog Fog
7:16 AM 55.9 °F 54.0 °F 93% 29.99 in 1.2 mi East 3.5 mph - N/A   Overcast
7:21 AM 55.9 °F 54.0 °F 93% 29.99 in 2.5 mi ESE 3.5 mph - N/A   Overcast
7:28 AM 55.9 °F 54.0 °F 93% 29.99 in 10.0 mi ESE 3.5 mph - N/A   Overcast
7:53 AM 57.0 °F 54.0 °F 89% 29.99 in 10.0 mi Calm Calm - N/A   Overcast
8:38 AM 59.0 °F 55.0 °F 87% 29.99 in 10.0 mi Calm Calm - N/A   Overcast
8:53 AM 59.0 °F 55.0 °F 87% 30.00 in 10.0 mi Calm Calm - N/A   Overcast
9:34 AM 61.0 °F 55.9 °F 83% 30.00 in 10.0 mi Calm Calm - N/A   Overcast
9:53 AM 63.0 °F 55.9 °F 78% 30.00 in 10.0 mi Calm Calm - N/A   Overcast
10:34 AM 64.9 °F 57.0 °F 75% 30.01 in 10.0 mi Variable 3.5 mph - N/A   Scattered Clouds
10:53 AM 66.9 °F 57.0 °F 70% 30.01 in 10.0 mi Calm Calm - N/A   Partly Cloudy
11:53 AM 72.0 °F 57.9 °F 61% 29.99 in 10.0 mi Variable 3.5 mph - N/A   Clear
12:53 PM 72.0 °F 57.9 °F 61% 29.98 in 10.0 mi SSW 9.2 mph - N/A   Clear
1:53 PM 73.9 °F 57.9 °F 57% 29.98 in 10.0 mi South 8.1 mph - N/A   Clear
2:53 PM 77.0 °F 57.9 °F 52% 29.98 in 10.0 mi South 9.2 mph - N/A   Clear
3:53 PM 73.9 °F 57.9 °F 57% 29.96 in 10.0 mi South 9.2 mph - N/A   Clear
4:53 PM 73.0 °F 57.9 °F 59% 29.94 in 10.0 mi SSE 8.1 mph - N/A   Clear
5:53 PM 71.1 °F 57.0 °F 61% 29.94 in 10.0 mi South 10.4 mph - N/A   Clear
6:53 PM 69.1 °F 57.0 °F 65% 29.94 in 10.0 mi South 9.2 mph - N/A   Clear
7:53 PM 64.9 °F 55.9 °F 73% 29.96 in 10.0 mi SSE 8.1 mph - N/A   Clear
8:53 PM 62.1 °F 55.9 °F 80% 29.96 in 10.0 mi SSE 6.9 mph - N/A   Clear
9:53 PM 62.1 °F 55.9 °F 80% 29.98 in 10.0 mi Calm Calm - N/A   Clear
10:53 PM 59.0 °F 55.0 °F 87% 29.98 in 10.0 mi Calm Calm - N/A   Clear
11:53 PM 60.1 °F 55.0 °F 83% 29.99 in 10.0 mi Calm Calm - N/A   Clear